| time (UTC) | temp F | wind direction | speed MPH | gust MPH | rain 1hr in | rain 24hr in | rain mn in | humidity % | barometer mb |
| 20260906173813 | 91 | 171 | 7.0 | 9.0 | 0.00 | 0.00 | 0.00 | 7 | 1016.0 |
| 20260906173315 | 91 | 169 | 5.0 | 9.0 | 0.00 | 0.00 | 0.00 | 7 | 1016.0 |
| 20260906172813 | 91 | 185 | 4.0 | 6.0 | 0.00 | 0.00 | 0.00 | 7 | 1016.0 |
| 20260906172314 | 91 | 185 | 3.0 | 5.0 | 0.00 | 0.00 | 0.00 | 7 | 1016.0 |
| 20260906171813 | 91 | 154 | 4.0 | 6.0 | 0.00 | 0.00 | 0.00 | 7 | 1016.0 |
| 20260906171313 | 91 | 151 | 3.0 | 5.0 | 0.00 | 0.00 | 0.00 | 7 | 1016.0 |
| 20260906170815 | 91 | 145 | 4.0 | 6.0 | 0.00 | 0.00 | 0.00 | 7 | 1016.0 |
| 20260906170314 | 91 | 158 | 5.0 | 6.0 | 0.00 | 0.00 | 0.00 | 7 | 1016.0 |
| 20260906165814 | 91 | 125 | 2.0 | 3.0 | 0.00 | 0.00 | 0.00 | 7 | 1016.0 |
| 20260906165313 | 91 | 121 | 2.0 | 3.0 | 0.00 | 0.00 | 0.00 | 7 | 1016.0 |
| 20260906164814 | 91 | 110 | 3.0 | 4.0 | 0.00 | 0.00 | 0.00 | 7 | 1016.0 |
| 20260906164314 | 91 | 138 | 2.0 | 3.0 | 0.00 | 0.00 | 0.00 | 7 | 1016.0 |
| 20260906163813 | 90 | 112 | 2.0 | 4.0 | 0.00 | 0.00 | 0.00 | 7 | 1016.0 |
| 20260906163313 | 90 | 126 | 3.0 | 5.0 | 0.00 | 0.00 | 0.00 | 7 | 1016.0 |
| 20260906162813 | 90 | 135 | 4.0 | 6.0 | 0.00 | 0.00 | 0.00 | 7 | 1016.0 |
| 20260906162313 | 90 | 111 | 3.0 | 4.0 | 0.00 | 0.00 | 0.00 | 7 | 1016.0 |
| 20260906161814 | 90 | 90 | 3.0 | 4.0 | 0.00 | 0.00 | 0.00 | 7 | 1016.0 |
| 20260906161313 | 90 | 104 | 3.0 | 5.0 | 0.00 | 0.00 | 0.00 | 7 | 1016.0 |
| 20260906160813 | 90 | 153 | 4.0 | 6.0 | 0.00 | 0.00 | 0.00 | 7 | 1016.0 |
| 20260906160313 | 90 | 159 | 4.0 | 6.0 | 0.00 | 0.00 | 0.00 | 7 | 1016.0 |
| 20260906155813 | 90 | 117 | 3.0 | 4.0 | 0.00 | 0.00 | 0.00 | 7 | 1016.0 |
| 20260906155313 | 90 | 120 | 4.0 | 4.0 | 0.00 | 0.00 | 0.00 | 7 | 1016.0 |
| 20260906154815 | 89 | 114 | 3.0 | 5.0 | 0.00 | 0.00 | 0.00 | 7 | 1016.0 |
| 20260906154314 | 89 | 120 | 4.0 | 6.0 | 0.00 | 0.00 | 0.00 | 7 | 1016.0 |
| 20260906153813 | 89 | 154 | 3.0 | 4.0 | 0.00 | 0.00 | 0.00 | 7 | 1016.0 |
| 20260906153314 | 89 | 148 | 4.0 | 6.0 | 0.00 | 0.00 | 0.00 | 7 | 1016.0 |
| 20260906152813 | 89 | 102 | 2.0 | 3.0 | 0.00 | 0.00 | 0.00 | 7 | 1016.0 |
| 20260906152314 | 88 | 76 | 2.0 | 3.0 | 0.00 | 0.00 | 0.00 | 7 | 1016.0 |
| 20260906151813 | 88 | 101 | 3.0 | 4.0 | 0.00 | 0.00 | 0.00 | 7 | 1016.0 |
| 20260906151313 | 88 | 128 | 3.0 | 4.0 | 0.00 | 0.00 | 0.00 | 7 | 1016.0 |
| 20260906150813 | 87 | 75 | 2.0 | 3.0 | 0.00 | 0.00 | 0.00 | 7 | 1016.0 |
| 20260906150313 | 87 | 74 | 3.0 | 4.0 | 0.00 | 0.00 | 0.00 | 7 | 1016.0 |
| 20260906145813 | 86 | 115 | 4.0 | 5.0 | 0.00 | 0.00 | 0.00 | 7 | 1016.0 |
| 20260906145313 | 86 | 65 | 3.0 | 4.0 | 0.00 | 0.00 | 0.00 | 7 | 1016.0 |
| 20260906144813 | 85 | 99 | 3.0 | 4.0 | 0.00 | 0.00 | 0.00 | 7 | 1016.0 |
| 20260906144314 | 85 | 110 | 3.0 | 4.0 | 0.00 | 0.00 | 0.00 | 7 | 1016.0 |
| 20260906143814 | 84 | 102 | 3.0 | 6.0 | 0.00 | 0.00 | 0.00 | 7 | 1016.0 |
| 20260906143313 | 84 | 81 | 4.0 | 5.0 | 0.00 | 0.00 | 0.00 | 7 | 1016.0 |
| 20260906142813 | 84 | 103 | 4.0 | 5.0 | 0.00 | 0.00 | 0.00 | 7 | 1016.0 |
| 20260906142313 | 83 | 84 | 3.0 | 3.0 | 0.00 | 0.00 | 0.00 | 7 | 1016.0 |
| 20260906141813 | 83 | 98 | 3.0 | 4.0 | 0.00 | 0.00 | 0.00 | 7 | 1016.0 |
| 20260906141313 | 83 | 110 | 3.0 | 4.0 | 0.00 | 0.00 | 0.00 | 7 | 1016.0 |
| 20260906140813 | 83 | 91 | 1.0 | 2.0 | 0.00 | 0.00 | 0.00 | 7 | 1016.0 |
| 20260906140314 | 84 | 111 | 3.0 | 4.0 | 0.00 | 0.00 | 0.00 | 7 | 1016.0 |
| 20260906135813 | 84 | 86 | 1.0 | 2.0 | 0.00 | 0.00 | 0.00 | 7 | 1016.0 |
| 20260906135314 | 85 | 63 | 2.0 | 2.0 | 0.00 | 0.00 | 0.00 | 7 | 1016.0 |
| 20260906134813 | 84 | 28 | 1.0 | 2.0 | 0.00 | 0.00 | 0.00 | 7 | 1016.0 |
| 20260906134314 | 83 | 257 | 2.0 | 4.0 | 0.00 | 0.00 | 0.00 | 7 | 1016.0 |
| 20260906133815 | 82 | 107 | 0.0 | 1.0 | 0.00 | 0.00 | 0.00 | 7 | 1016.0 |
| 20260906133313 | 80 | 51 | 1.0 | 2.0 | 0.00 | 0.00 | 0.00 | 7 | 1016.0 |
| 20260906132813 | 80 | 19 | 1.0 | 3.0 | 0.00 | 0.00 | 0.00 | 7 | 1016.0 |
| 20260906132313 | 78 | 20 | 0.0 | 1.0 | 0.00 | 0.00 | 0.00 | 7 | 1016.0 |
| 20260906131813 | 77 | 22 | 1.0 | 2.0 | 0.00 | 0.00 | 0.00 | 7 | 1016.0 |
| 20260906131313 | 76 | 347 | 1.0 | 2.0 | 0.00 | 0.00 | 0.00 | 7 | 1016.0 |
| 20260906130813 | 76 | 336 | 1.0 | 2.0 | 0.00 | 0.00 | 0.00 | 7 | 1016.0 |
| 20260906130313 | 76 | 316 | 1.0 | 2.0 | 0.00 | 0.00 | 0.00 | 7 | 1016.0 |
| 20260906125814 | 76 | 341 | 1.0 | 1.0 | 0.00 | 0.00 | 0.00 | 7 | 1016.0 |
| 20260906125313 | 75 | 203 | 0.0 | 1.0 | 0.00 | 0.00 | 0.00 | 7 | 1016.0 |
| 20260906124813 | 74 | 135 | 1.0 | 2.0 | 0.00 | 0.00 | 0.00 | 7 | 1015.0 |
| 20260906124314 | 73 | 93 | 1.0 | 4.0 | 0.00 | 0.00 | 0.00 | 7 | 1015.0 |
| 20260906123813 | 73 | 79 | 1.0 | 3.0 | 0.00 | 0.00 | 0.00 | 7 | 1015.0 |
| 20260906123313 | 72 | 62 | 1.0 | 2.0 | 0.00 | 0.00 | 0.00 | 7 | 1015.0 |
| 20260906122813 | 72 | 59 | 2.0 | 2.0 | 0.00 | 0.00 | 0.00 | 7 | 1015.0 |
| 20260906122314 | 72 | 43 | 2.0 | 5.0 | 0.00 | 0.00 | 0.00 | 7 | 1015.0 |
| 20260906121813 | 72 | 261 | 2.0 | 4.0 | 0.00 | 0.00 | 0.00 | 7 | 1015.0 |
| 20260906121314 | 72 | 231 | 3.0 | 5.0 | 0.00 | 0.00 | 0.00 | 7 | 1015.0 |
| 20260906120813 | 72 | 81 | 3.0 | 5.0 | 0.00 | 0.00 | 0.00 | 7 | 1015.0 |
| 20260906120313 | 72 | 223 | 2.0 | 4.0 | 0.00 | 0.00 | 0.00 | 7 | 1015.0 |
| 20260906115813 | 72 | 48 | 1.0 | 4.0 | 0.00 | 0.00 | 0.00 | 7 | 1015.0 |
| 20260906115313 | 72 | 198 | 2.0 | 3.0 | 0.00 | 0.00 | 0.00 | 7 | 1015.0 |
| 20260906114813 | 71 | 204 | 2.0 | 2.0 | 0.00 | 0.00 | 0.00 | 7 | 1015.0 |
| 20260906114313 | 72 | 204 | 1.0 | 3.0 | 0.00 | 0.00 | 0.00 | 7 | 1015.0 |
| 20260906113817 | 72 | 221 | 1.0 | 2.0 | 0.00 | 0.00 | 0.00 | 7 | 1015.0 |
| 20260906113313 | 72 | 220 | 1.0 | 4.0 | 0.00 | 0.00 | 0.00 | 7 | 1015.0 |
| 20260906112813 | 72 | 93 | 1.0 | 2.0 | 0.00 | 0.00 | 0.00 | 7 | 1015.0 |
| 20260906112314 | 72 | 233 | 2.0 | 4.0 | 0.00 | 0.00 | 0.00 | 7 | 1015.0 |
| 20260906111813 | 72 | 201 | 1.0 | 3.0 | 0.00 | 0.00 | 0.00 | 7 | 1015.0 |
| 20260906111313 | 72 | 74 | 1.0 | 2.0 | 0.00 | 0.00 | 0.00 | 7 | 1015.0 |
| 20260906110813 | 72 | 54 | 2.0 | 3.0 | 0.00 | 0.00 | 0.00 | 7 | 1015.0 |
| 20260906110313 | 72 | 324 | 4.0 | 6.0 | 0.00 | 0.00 | 0.00 | 7 | 1015.0 |
| 20260906105813 | 72 | 259 | 4.0 | 6.0 | 0.00 | 0.00 | 0.00 | 7 | 1015.0 |
| 20260906105313 | 72 | 261 | 2.0 | 3.0 | 0.00 | 0.00 | 0.00 | 7 | 1015.0 |
| 20260906104813 | 72 | 225 | 2.0 | 4.0 | 0.00 | 0.00 | 0.00 | 7 | 1015.0 |
| 20260906104314 | 72 | 300 | 2.0 | 3.0 | 0.00 | 0.00 | 0.00 | 7 | 1015.0 |
| 20260906103813 | 73 | 278 | 1.0 | 2.0 | 0.00 | 0.00 | 0.00 | 7 | 1015.0 |
| 20260906103314 | 73 | 275 | 2.0 | 3.0 | 0.00 | 0.00 | 0.00 | 7 | 1015.0 |
| 20260906102813 | 73 | 336 | 2.0 | 6.0 | 0.00 | 0.00 | 0.00 | 7 | 1015.0 |
| 20260906102313 | 74 | 28 | 4.0 | 6.0 | 0.00 | 0.00 | 0.00 | 7 | 1015.0 |
| 20260906101813 | 74 | 318 | 3.0 | 4.0 | 0.00 | 0.00 | 0.00 | 7 | 1015.0 |
| 20260906101313 | 74 | 26 | 2.0 | 4.0 | 0.00 | 0.00 | 0.00 | 7 | 1015.0 |
| 20260906100815 | 74 | 335 | 2.0 | 2.0 | 0.00 | 0.00 | 0.00 | 7 | 1015.0 |
| 20260906100313 | 74 | 284 | 2.0 | 4.0 | 0.00 | 0.00 | 0.00 | 7 | 1015.0 |
| 20260906095813 | 74 | 280 | 1.0 | 2.0 | 0.00 | 0.00 | 0.00 | 7 | 1015.0 |
| 20260906095317 | 74 | 336 | 2.0 | 2.0 | 0.00 | 0.00 | 0.00 | 7 | 1015.0 |
| 20260906094813 | 74 | 243 | 1.0 | 3.0 | 0.00 | 0.00 | 0.00 | 7 | 1015.0 |
| 20260906094313 | 74 | 270 | 2.0 | 2.0 | 0.00 | 0.00 | 0.00 | 7 | 1015.0 |
| 20260906093815 | 74 | 315 | 1.0 | 2.0 | 0.00 | 0.00 | 0.00 | 7 | 1014.0 |
| 20260906093313 | 74 | 260 | 1.0 | 2.0 | 0.00 | 0.00 | 0.00 | 7 | 1014.0 |
| 20260906092813 | 74 | 313 | 2.0 | 3.0 | 0.00 | 0.00 | 0.00 | 7 | 1014.0 |
| 20260906092313 | 74 | 324 | 3.0 | 3.0 | 0.00 | 0.00 | 0.00 | 7 | 1014.0 |
| 20260906091813 | 74 | 313 | 2.0 | 2.0 | 0.00 | 0.00 | 0.00 | 7 | 1014.0 |
| 20260906091313 | 74 | 292 | 2.0 | 3.0 | 0.00 | 0.00 | 0.00 | 7 | 1014.0 |
| 20260906090813 | 74 | 303 | 2.0 | 3.0 | 0.00 | 0.00 | 0.00 | 7 | 1014.0 |
| 20260906090314 | 74 | 272 | 2.0 | 3.0 | 0.00 | 0.00 | 0.00 | 7 | 1014.0 |
| 20260906085813 | 74 | 297 | 2.0 | 3.0 | 0.00 | 0.00 | 0.00 | 7 | 1014.0 |
| 20260906085313 | 75 | 308 | 2.0 | 3.0 | 0.00 | 0.00 | 0.00 | 7 | 1014.0 |
| 20260906084813 | 75 | 286 | 2.0 | 4.0 | 0.00 | 0.00 | 0.00 | 7 | 1014.0 |
| 20260906084313 | 76 | 251 | 1.0 | 2.0 | 0.00 | 0.00 | 0.00 | 7 | 1014.0 |
| 20260906083813 | 76 | 279 | 1.0 | 3.0 | 0.00 | 0.00 | 0.00 | 7 | 1014.0 |
| 20260906083313 | 77 | 357 | 2.0 | 3.0 | 0.00 | 0.00 | 0.00 | 7 | 1014.0 |
| 20260906082814 | 77 | 3 | 2.0 | 2.0 | 0.00 | 0.00 | 0.00 | 7 | 1014.0 |
| 20260906082313 | 77 | 342 | 2.0 | 2.0 | 0.00 | 0.00 | 0.00 | 7 | 1014.0 |
| 20260906081813 | 77 | 335 | 2.0 | 2.0 | 0.00 | 0.00 | 0.00 | 7 | 1014.0 |
| 20260906081313 | 76 | 327 | 2.0 | 2.0 | 0.00 | 0.00 | 0.00 | 7 | 1014.0 |
| 20260906080814 | 76 | 15 | 1.0 | 2.0 | 0.00 | 0.00 | 0.00 | 7 | 1014.0 |
| 20260906080313 | 76 | 48 | 2.0 | 3.0 | 0.00 | 0.00 | 0.00 | 7 | 1014.0 |
| 20260906075813 | 75 | 24 | 2.0 | 4.0 | 0.00 | 0.00 | 0.00 | 7 | 1014.0 |
| 20260906075313 | 76 | 7 | 1.0 | 2.0 | 0.00 | 0.00 | 0.00 | 7 | 1014.0 |
| 20260906074813 | 76 | 353 | 2.0 | 3.0 | 0.00 | 0.00 | 0.00 | 7 | 1014.0 |
| 20260906074313 | 77 | 357 | 2.0 | 3.0 | 0.00 | 0.00 | 0.00 | 7 | 1014.0 |
| 20260906073813 | 78 | 357 | 2.0 | 3.0 | 0.00 | 0.00 | 0.00 | 7 | 1014.0 |
| 20260906073313 | 78 | 360 | 2.0 | 2.0 | 0.00 | 0.00 | 0.00 | 7 | 1014.0 |
| 20260906072813 | 78 | 104 | 1.0 | 1.0 | 0.00 | 0.00 | 0.00 | 7 | 1014.0 |
| 20260906072313 | 78 | 154 | 1.0 | 2.0 | 0.00 | 0.00 | 0.00 | 7 | 1014.0 |
| 20260906071813 | 78 | 24 | 1.0 | 1.0 | 0.00 | 0.00 | 0.00 | 7 | 1014.0 |
| 20260906071313 | 78 | 58 | 1.0 | 2.0 | 0.00 | 0.00 | 0.00 | 7 | 1014.0 |
| 20260906070816 | 78 | 43 | 1.0 | 2.0 | 0.00 | 0.00 | 0.00 | 7 | 1014.0 |
| 20260906070313 | 79 | 28 | 2.0 | 3.0 | 0.00 | 0.00 | 0.00 | 7 | 1014.0 |
| 20260906065813 | 79 | 15 | 2.0 | 2.0 | 0.00 | 0.00 | 0.00 | 7 | 1014.0 |
| 20260906065313 | 80 | 20 | 1.0 | 2.0 | 0.00 | 0.00 | 0.00 | 7 | 1014.0 |
| 20260906064813 | 80 | 27 | 2.0 | 3.0 | 0.00 | 0.00 | 0.00 | 7 | 1014.0 |
| 20260906064313 | 80 | 45 | 1.0 | 2.0 | 0.00 | 0.00 | 0.00 | 7 | 1014.0 |
| 20260906063813 | 80 | 96 | 0.0 | 1.0 | 0.00 | 0.00 | 0.00 | 7 | 1014.0 |
| 20260906063313 | 80 | 132 | 1.0 | 2.0 | 0.00 | 0.00 | 0.00 | 7 | 1014.0 |
| 20260906062814 | 80 | 161 | 1.0 | 2.0 | 0.00 | 0.00 | 0.00 | 7 | 1014.0 |
| 20260906062313 | 80 | 149 | 2.0 | 2.0 | 0.00 | 0.00 | 0.00 | 7 | 1014.0 |
| 20260906061813 | 80 | 130 | 1.0 | 2.0 | 0.00 | 0.00 | 0.00 | 7 | 1014.0 |
| 20260906061313 | 80 | 125 | 2.0 | 2.0 | 0.00 | 0.00 | 0.00 | 7 | 1014.0 |
| 20260906060813 | 80 | 106 | 2.0 | 2.0 | 0.00 | 0.00 | 0.00 | 7 | 1014.0 |
| 20260906060313 | 80 | 122 | 1.0 | 2.0 | 0.00 | 0.00 | 0.00 | 7 | 1014.0 |
| 20260906055813 | 81 | 151 | 2.0 | 3.0 | 0.00 | 0.00 | 0.00 | 7 | 1014.0 |
| 20260906055313 | 81 | 140 | 2.0 | 3.0 | 0.00 | 0.00 | 0.00 | 7 | 1014.0 |
| 20260906054813 | 81 | 120 | 3.0 | 3.0 | 0.00 | 0.00 | 0.00 | 7 | 1014.0 |
| 20260906054313 | 81 | 121 | 2.0 | 3.0 | 0.00 | 0.00 | 0.00 | 7 | 1014.0 |
| 20260906053813 | 81 | 124 | 2.0 | 3.0 | 0.00 | 0.00 | 0.00 | 7 | 1014.0 |
| 20260906053313 | 82 | 119 | 3.0 | 3.0 | 0.00 | 0.00 | 0.00 | 7 | 1014.0 |
| 20260906052813 | 82 | 133 | 1.0 | 2.0 | 0.00 | 0.00 | 0.00 | 7 | 1014.0 |
| 20260906052313 | 82 | 143 | 2.0 | 2.0 | 0.00 | 0.00 | 0.00 | 7 | 1014.0 |
| 20260906051813 | 82 | 153 | 2.0 | 3.0 | 0.00 | 0.00 | 0.00 | 7 | 1014.0 |
| 20260906051313 | 82 | 150 | 1.0 | 2.0 | 0.00 | 0.00 | 0.00 | 7 | 1014.0 |
| 20260906050813 | 82 | 127 | 2.0 | 2.0 | 0.00 | 0.00 | 0.00 | 7 | 1014.0 |
| 20260906050313 | 82 | 126 | 2.0 | 3.0 | 0.00 | 0.00 | 0.00 | 7 | 1014.0 |
| 20260906045814 | 82 | 131 | 1.0 | 2.0 | 0.00 | 0.00 | 0.00 | 7 | 1014.0 |
| 20260906045313 | 83 | 121 | 2.0 | 2.0 | 0.00 | 0.00 | 0.00 | 7 | 1014.0 |
| 20260906044813 | 83 | 142 | 2.0 | 2.0 | 0.00 | 0.00 | 0.00 | 7 | 1014.0 |
| 20260906044313 | 83 | 162 | 4.0 | 5.0 | 0.00 | 0.00 | 0.00 | 7 | 1014.0 |
| 20260906043813 | 83 | 160 | 5.0 | 6.0 | 0.00 | 0.00 | 0.00 | 7 | 1014.0 |
| 20260906043315 | 83 | 162 | 4.0 | 5.0 | 0.00 | 0.00 | 0.00 | 7 | 1014.0 |
| 20260906042813 | 83 | 165 | 5.0 | 6.0 | 0.00 | 0.00 | 0.00 | 7 | 1014.0 |
| 20260906042313 | 83 | 161 | 5.0 | 6.0 | 0.00 | 0.00 | 0.00 | 7 | 1014.0 |
| 20260906041813 | 83 | 165 | 4.0 | 5.0 | 0.00 | 0.00 | 0.00 | 7 | 1014.0 |
| 20260906041313 | 83 | 172 | 5.0 | 5.0 | 0.00 | 0.00 | 0.00 | 7 | 1014.0 |
| 20260906040813 | 83 | 174 | 5.0 | 6.0 | 0.00 | 0.00 | 0.00 | 7 | 1014.0 |
| 20260906040313 | 83 | 189 | 4.0 | 5.0 | 0.00 | 0.00 | 0.00 | 7 | 1014.0 |
| 20260906035815 | 83 | 197 | 3.0 | 4.0 | 0.00 | 0.00 | 0.00 | 7 | 1014.0 |
| 20260906035313 | 83 | 182 | 4.0 | 4.0 | 0.00 | 0.00 | 0.00 | 7 | 1014.0 |
| 20260906034813 | 83 | 171 | 2.0 | 3.0 | 0.00 | 0.00 | 0.00 | 7 | 1014.0 |
| 20260906034313 | 83 | 150 | 2.0 | 3.0 | 0.00 | 0.00 | 0.00 | 7 | 1014.0 |
| 20260906033813 | 83 | 139 | 2.0 | 2.0 | 0.00 | 0.00 | 0.00 | 7 | 1014.0 |
| 20260906033314 | 83 | 136 | 2.0 | 3.0 | 0.00 | 0.00 | 0.00 | 7 | 1014.0 |
| 20260906032813 | 83 | 140 | 2.0 | 2.0 | 0.00 | 0.00 | 0.00 | 7 | 1014.0 |
| 20260906032314 | 83 | 148 | 2.0 | 3.0 | 0.00 | 0.00 | 0.00 | 7 | 1014.0 |
| 20260906031813 | 83 | 162 | 2.0 | 3.0 | 0.00 | 0.00 | 0.00 | 7 | 1014.0 |
| 20260906031313 | 83 | 163 | 2.0 | 3.0 | 0.00 | 0.00 | 0.00 | 7 | 1014.0 |
| 20260906030813 | 84 | 160 | 2.0 | 3.0 | 0.00 | 0.00 | 0.00 | 7 | 1014.0 |
| 20260906030313 | 84 | 188 | 2.0 | 3.0 | 0.00 | 0.00 | 0.00 | 7 | 1014.0 |
| 20260906025813 | 84 | 192 | 2.0 | 2.0 | 0.00 | 0.00 | 0.00 | 7 | 1014.0 |
| 20260906025314 | 84 | 141 | 2.0 | 4.0 | 0.00 | 0.00 | 0.00 | 7 | 1014.0 |
| 20260906024813 | 84 | 128 | 2.0 | 3.0 | 0.00 | 0.00 | 0.00 | 7 | 1014.0 |
| 20260906024315 | 85 | 123 | 2.0 | 4.0 | 0.00 | 0.00 | 0.00 | 7 | 1014.0 |
| 20260906023813 | 85 | 159 | 2.0 | 2.0 | 0.00 | 0.00 | 0.00 | 7 | 1014.0 |
| 20260906023313 | 85 | 161 | 2.0 | 2.0 | 0.00 | 0.00 | 0.00 | 7 | 1013.0 |
| 20260906022813 | 85 | 137 | 2.0 | 2.0 | 0.00 | 0.00 | 0.00 | 7 | 1013.0 |
| 20260906022313 | 85 | 130 | 2.0 | 2.0 | 0.00 | 0.00 | 0.00 | 7 | 1013.0 |
| 20260906021813 | 86 | 106 | 1.0 | 2.0 | 0.00 | 0.00 | 0.00 | 7 | 1013.0 |
| 20260906021314 | 86 | 114 | 2.0 | 2.0 | 0.00 | 0.00 | 0.00 | 7 | 1013.0 |
| 20260906020813 | 86 | 107 | 1.0 | 2.0 | 0.00 | 0.00 | 0.00 | 7 | 1013.0 |
| 20260906020313 | 86 | 109 | 1.0 | 2.0 | 0.00 | 0.00 | 0.00 | 7 | 1013.0 |
| 20260906015815 | 86 | 101 | 1.0 | 2.0 | 0.00 | 0.00 | 0.00 | 7 | 1013.0 |
| 20260906015313 | 86 | 100 | 2.0 | 2.0 | 0.00 | 0.00 | 0.00 | 7 | 1013.0 |
| 20260906014814 | 87 | 100 | 2.0 | 2.0 | 0.00 | 0.00 | 0.00 | 7 | 1013.0 |
| 20260906014314 | 87 | 91 | 2.0 | 2.0 | 0.00 | 0.00 | 0.00 | 7 | 1013.0 |
| 20260906013813 | 87 | 91 | 2.0 | 2.0 | 0.00 | 0.00 | 0.00 | 7 | 1013.0 |
| 20260906013313 | 87 | 87 | 2.0 | 2.0 | 0.00 | 0.00 | 0.00 | 7 | 1013.0 |
| 20260906012813 | 87 | 91 | 2.0 | 3.0 | 0.00 | 0.00 | 0.00 | 7 | 1013.0 |
| 20260906012313 | 87 | 83 | 1.0 | 2.0 | 0.00 | 0.00 | 0.00 | 7 | 1013.0 |
| 20260906011813 | 88 | 62 | 1.0 | 2.0 | 0.00 | 0.00 | 0.00 | 7 | 1013.0 |
| 20260906011313 | 88 | 66 | 2.0 | 2.0 | 0.00 | 0.00 | 0.00 | 7 | 1013.0 |
| 20260906010814 | 88 | 79 | 2.0 | 2.0 | 0.00 | 0.00 | 0.00 | 7 | 1012.0 |
| 20260906010313 | 88 | 73 | 2.0 | 2.0 | 0.00 | 0.00 | 0.00 | 7 | 1012.0 |
| 20260906005813 | 89 | 80 | 2.0 | 2.0 | 0.00 | 0.00 | 0.00 | 7 | 1012.0 |
| 20260906005313 | 89 | 77 | 2.0 | 3.0 | 0.00 | 0.00 | 0.00 | 7 | 1012.0 |
| 20260906004813 | 89 | 71 | 2.0 | 3.0 | 0.00 | 0.00 | 0.00 | 7 | 1012.0 |
| 20260906004313 | 90 | 79 | 2.0 | 2.0 | 0.00 | 0.00 | 0.00 | 7 | 1012.0 |
| 20260906003813 | 90 | 88 | 2.0 | 2.0 | 0.00 | 0.00 | 0.00 | 7 | 1012.0 |
| 20260906003313 | 90 | 86 | 2.0 | 3.0 | 0.00 | 0.00 | 0.00 | 7 | 1012.0 |
| 20260906002813 | 91 | 73 | 3.0 | 4.0 | 0.00 | 0.00 | 0.00 | 7 | 1012.0 |
| 20260906002313 | 91 | 74 | 2.0 | 3.0 | 0.00 | 0.00 | 0.00 | 7 | 1012.0 |
| 20260906001813 | 91 | 73 | 2.0 | 3.0 | 0.00 | 0.00 | 0.00 | 7 | 1012.0 |
| 20260906001313 | 92 | 71 | 2.0 | 3.0 | 0.00 | 0.00 | 0.00 | 7 | 1012.0 |
| 20260906000813 | 92 | 65 | 2.0 | 3.0 | 0.00 | 0.00 | 0.00 | 7 | 1012.0 |
| 20260906000313 | 93 | 60 | 2.0 | 3.0 | 0.00 | 0.00 | 0.00 | 7 | 1012.0 |
| 20260905235813 | 93 | 53 | 2.0 | 3.0 | 0.00 | 0.00 | 0.00 | 7 | 1012.0 |
| 20260905235316 | 94 | 59 | 2.0 | 3.0 | 0.00 | 0.00 | 0.00 | 7 | 1012.0 |
| 20260905234813 | 94 | 54 | 1.0 | 2.0 | 0.00 | 0.00 | 0.00 | 7 | 1012.0 |
| 20260905234313 | 94 | 65 | 2.0 | 2.0 | 0.00 | 0.00 | 0.00 | 7 | 1012.0 |
| 20260905233814 | 94 | 53 | 1.0 | 2.0 | 0.00 | 0.00 | 0.00 | 7 | 1012.0 |
| 20260905233316 | 94 | 53 | 1.0 | 2.0 | 0.00 | 0.00 | 0.00 | 7 | 1012.0 |
| 20260905232813 | 94 | 58 | 1.0 | 2.0 | 0.00 | 0.00 | 0.00 | 7 | 1012.0 |
| 20260905232313 | 94 | 62 | 1.0 | 2.0 | 0.00 | 0.00 | 0.00 | 7 | 1012.0 |
| 20260905231813 | 94 | 65 | 2.0 | 3.0 | 0.00 | 0.00 | 0.00 | 7 | 1012.0 |
| 20260905231313 | 94 | 66 | 0.0 | 2.0 | 0.00 | 0.00 | 0.00 | 7 | 1012.0 |
| 20260905230814 | 94 | 44 | 1.0 | 2.0 | 0.00 | 0.00 | 0.00 | 7 | 1012.0 |
| 20260905230314 | 95 | 51 | 1.0 | 2.0 | 0.00 | 0.00 | 0.00 | 7 | 1012.0 |
| 20260905225813 | 95 | 49 | 2.0 | 2.0 | 0.00 | 0.00 | 0.00 | 7 | 1012.0 |
| 20260905225313 | 95 | 73 | 1.0 | 2.0 | 0.00 | 0.00 | 0.00 | 7 | 1012.0 |
| 20260905224817 | 95 | 70 | 2.0 | 2.0 | 0.00 | 0.00 | 0.00 | 7 | 1012.0 |
| 20260905224313 | 95 | 85 | 0.0 | 2.0 | 0.00 | 0.00 | 0.00 | 7 | 1012.0 |
| 20260905223813 | 95 | 77 | 2.0 | 3.0 | 0.00 | 0.00 | 0.00 | 7 | 1012.0 |
| 20260905223313 | 96 | 85 | 1.0 | 2.0 | 0.00 | 0.00 | 0.00 | 7 | 1012.0 |
| 20260905222813 | 96 | 80 | 2.0 | 2.0 | 0.00 | 0.00 | 0.00 | 7 | 1012.0 |
| 20260905222313 | 96 | 70 | 1.0 | 2.0 | 0.00 | 0.00 | 0.00 | 7 | 1012.0 |
| 20260905221813 | 96 | 90 | 2.0 | 3.0 | 0.00 | 0.00 | 0.00 | 7 | 1012.0 |
| 20260905221314 | 96 | 89 | 2.0 | 3.0 | 0.00 | 0.00 | 0.00 | 7 | 1012.0 |
| 20260905220813 | 96 | 110 | 2.0 | 3.0 | 0.00 | 0.00 | 0.00 | 7 | 1012.0 |
| 20260905220314 | 97 | 99 | 2.0 | 3.0 | 0.00 | 0.00 | 0.00 | 7 | 1012.0 |
| 20260905215813 | 97 | 92 | 3.0 | 4.0 | 0.00 | 0.00 | 0.00 | 7 | 1012.0 |
| 20260905215313 | 97 | 95 | 2.0 | 3.0 | 0.00 | 0.00 | 0.00 | 7 | 1012.0 |
| 20260905214813 | 97 | 115 | 2.0 | 3.0 | 0.00 | 0.00 | 0.00 | 7 | 1012.0 |
| 20260905214314 | 96 | 88 | 2.0 | 3.0 | 0.00 | 0.00 | 0.00 | 7 | 1012.0 |
| 20260905213813 | 97 | 99 | 2.0 | 3.0 | 0.00 | 0.00 | 0.00 | 7 | 1013.0 |
| 20260905213313 | 97 | 74 | 3.0 | 4.0 | 0.00 | 0.00 | 0.00 | 7 | 1013.0 |
| 20260905212813 | 97 | 111 | 4.0 | 6.0 | 0.00 | 0.00 | 0.00 | 7 | 1013.0 |
| 20260905212313 | 98 | 130 | 2.0 | 4.0 | 0.00 | 0.00 | 0.00 | 7 | 1013.0 |
| 20260905211813 | 98 | 90 | 3.0 | 6.0 | 0.00 | 0.00 | 0.00 | 7 | 1013.0 |
| 20260905211313 | 98 | 118 | 4.0 | 8.0 | 0.00 | 0.00 | 0.00 | 7 | 1013.0 |
| 20260905210815 | 98 | 113 | 3.0 | 4.0 | 0.00 | 0.00 | 0.00 | 7 | 1013.0 |
| 20260905210313 | 99 | 112 | 4.0 | 5.0 | 0.00 | 0.00 | 0.00 | 7 | 1013.0 |
| 20260905205813 | 99 | 112 | 2.0 | 4.0 | 0.00 | 0.00 | 0.00 | 7 | 1013.0 |
| 20260905205340 | 99 | 108 | 4.0 | 6.0 | 0.00 | 0.00 | 0.00 | 7 | 1013.0 |
| 20260905204813 | 98 | 185 | 3.0 | 6.0 | 0.00 | 0.00 | 0.00 | 7 | 1013.0 |
| 20260905204313 | 98 | 122 | 4.0 | 5.0 | 0.00 | 0.00 | 0.00 | 7 | 1013.0 |
| 20260905203813 | 98 | 183 | 6.0 | 8.0 | 0.00 | 0.00 | 0.00 | 7 | 1013.0 |
| 20260905203313 | 98 | 132 | 4.0 | 7.0 | 0.00 | 0.00 | 0.00 | 7 | 1013.0 |
| 20260905202813 | 98 | 122 | 5.0 | 7.0 | 0.00 | 0.00 | 0.00 | 7 | 1013.0 |
| 20260905202314 | 98 | 173 | 2.0 | 4.0 | 0.00 | 0.00 | 0.00 | 7 | 1013.0 |
| 20260905201814 | 98 | 123 | 3.0 | 4.0 | 0.00 | 0.00 | 0.00 | 7 | 1014.0 |
| 20260905201313 | 98 | 171 | 7.0 | 9.0 | 0.00 | 0.00 | 0.00 | 7 | 1014.0 |
| 20260905200814 | 98 | 105 | 3.0 | 4.0 | 0.00 | 0.00 | 0.00 | 7 | 1014.0 |
| 20260905200313 | 97 | 118 | 3.0 | 6.0 | 0.00 | 0.00 | 0.00 | 7 | 1014.0 |
| 20260905195813 | 97 | 163 | 7.0 | 9.0 | 0.00 | 0.00 | 0.00 | 7 | 1014.0 |
| 20260905195313 | 97 | 171 | 5.0 | 7.0 | 0.00 | 0.00 | 0.00 | 7 | 1014.0 |
| 20260905194814 | 97 | 118 | 3.0 | 3.0 | 0.00 | 0.00 | 0.00 | 7 | 1014.0 |
| 20260905194313 | 97 | 91 | 3.0 | 4.0 | 0.00 | 0.00 | 0.00 | 7 | 1014.0 |
| 20260905193814 | 98 | 115 | 5.0 | 7.0 | 0.00 | 0.00 | 0.00 | 7 | 1014.0 |
| 20260905193313 | 98 | 121 | 5.0 | 7.0 | 0.00 | 0.00 | 0.00 | 7 | 1014.0 |
| 20260905192815 | 97 | 172 | 6.0 | 9.0 | 0.00 | 0.00 | 0.00 | 7 | 1014.0 |
| 20260905192314 | 97 | 97 | 5.0 | 6.0 | 0.00 | 0.00 | 0.00 | 7 | 1014.0 |
| 20260905191814 | 98 | 110 | 3.0 | 4.0 | 0.00 | 0.00 | 0.00 | 7 | 1014.0 |
| 20260905191314 | 98 | 164 | 4.0 | 8.0 | 0.00 | 0.00 | 0.00 | 7 | 1014.0 |
| 20260905190813 | 97 | 185 | 5.0 | 8.0 | 0.00 | 0.00 | 0.00 | 7 | 1014.0 |
| 20260905190315 | 97 | 155 | 2.0 | 4.0 | 0.00 | 0.00 | 0.00 | 7 | 1014.0 |
| 20260905185813 | 97 | 155 | 5.0 | 9.0 | 0.00 | 0.00 | 0.00 | 7 | 1014.0 |
| 20260905185314 | 97 | 149 | 5.0 | 9.0 | 0.00 | 0.00 | 0.00 | 7 | 1014.0 |
| 20260905184814 | 97 | 203 | 6.0 | 7.0 | 0.00 | 0.00 | 0.00 | 7 | 1014.0 |
| 20260905184313 | 96 | 190 | 5.0 | 7.0 | 0.00 | 0.00 | 0.00 | 7 | 1014.0 |
| 20260905183814 | 96 | 148 | 6.0 | 8.0 | 0.00 | 0.00 | 0.00 | 7 | 1014.0 |
| 20260905183315 | 96 | 124 | 4.0 | 6.0 | 0.00 | 0.00 | 0.00 | 7 | 1015.0 |
| 20260905182813 | 96 | 173 | 6.0 | 8.0 | 0.00 | 0.00 | 0.00 | 7 | 1015.0 |
| 20260905182314 | 95 | 163 | 5.0 | 9.0 | 0.00 | 0.00 | 0.00 | 7 | 1015.0 |
| 20260905181813 | 95 | 165 | 7.0 | 9.0 | 0.00 | 0.00 | 0.00 | 7 | 1015.0 |
| 20260905181313 | 95 | 155 | 8.0 | 10.0 | 0.00 | 0.00 | 0.00 | 7 | 1015.0 |
| 20260905180813 | 95 | 122 | 5.0 | 6.0 | 0.00 | 0.00 | 0.00 | 7 | 1015.0 |
| 20260905180314 | 95 | 156 | 5.0 | 8.0 | 0.00 | 0.00 | 0.00 | 7 | 1015.0 |
| 20260905175814 | 95 | 158 | 4.0 | 6.0 | 0.00 | 0.00 | 0.00 | 7 | 1015.0 |
| 20260905175313 | 95 | 152 | 4.0 | 8.0 | 0.00 | 0.00 | 0.00 | 7 | 1015.0 |
| 20260905174813 | 94 | 143 | 3.0 | 5.0 | 0.00 | 0.00 | 0.00 | 7 | 1015.0 |
| 20260905174313 | 95 | 104 | 5.0 | 7.0 | 0.00 | 0.00 | 0.00 | 7 | 1015.0 |